• In Hungary
  • List of Countries
  • For 7 days
  • Water Temperature
  • Satellite Maps
  • Weather Map
  • News
  • Weather Widgets
  • user-avatar
    Login

    Hourly Weather San Roque

    Today, 22 September, Saturday

    Time Temperature Precipitation Wind Pressure Humidity
    00:00 +25°C° 0 mm 2 mps 748 mmHg 62%
    01:00 +25°C° 0 mm 2 mps 747 mmHg 60%
    02:00 +25°C° 0 mm 2 mps 747 mmHg 59%
    03:00 +24°C° 0 mm 3 mps 747 mmHg 57%
    04:00 +24°C° 0 mm 3 mps 747 mmHg 57%
    05:00 +24°C° 0 mm 3 mps 747 mmHg 56%
    06:00 +22°C° 0 mm 3 mps 748 mmHg 61%
    07:00 +26°C° 0 mm 3 mps 748 mmHg 54%
    08:00 +28°C° 0 mm 4 mps 748 mmHg 47%
    09:00 +30°C° 0 mm 4 mps 749 mmHg 39%
    10:00 +32°C° 0 mm 4 mps 749 mmHg 35%
    11:00 +34°C° 0 mm 5 mps 749 mmHg 31%
    12:00 +35°C° 0 mm 5 mps 749 mmHg 27%
    13:00 +35°C° 0 mm 5 mps 748 mmHg 26%
    14:00 +35°C° 0 mm 5 mps 748 mmHg 25%
    15:00 +35°C° 0 mm 5 mps 748 mmHg 24%
    16:00 +34°C° 0 mm 5 mps 748 mmHg 28%
    17:00 +32°C° 0 mm 4 mps 748 mmHg 32%
    18:00 +30°C° 0 mm 4 mps 748 mmHg 36%
    19:00 +28°C° 0 mm 4 mps 748 mmHg 40%
    20:00 +27°C° 0 mm 4 mps 748 mmHg 44%
    21:00 +26°C° 0 mm 4 mps 749 mmHg 49%
    22:00 +25°C° 0 mm 4 mps 749 mmHg 48%
    23:00 +25°C° 0 mm 4 mps 748 mmHg 47%

    Tomorrow, 23 September, Sunday

    Time Temperature Precipitation Wind Pressure Humidity
    00:00 +25°C° 0 mm 4 mps 748 mmHg 46%
    01:00 +25°C° 0 mm 4 mps 748 mmHg 45%
    02:00 +25°C° 0 mm 4 mps 748 mmHg 45%
    03:00 +23°C° 0 mm 4 mps 748 mmHg 44%
    04:00 +23°C° 0 mm 4 mps 748 mmHg 44%
    05:00 +23°C° 0 mm 4 mps 748 mmHg 43%
    06:00 +23°C° 0 mm 4 mps 748 mmHg 43%
    07:00 +26°C° 0 mm 4 mps 748 mmHg 38%
    08:00 +28°C° 0 mm 4 mps 748 mmHg 33%
    09:00 +32°C° 0 mm 4 mps 749 mmHg 29%
    10:00 +33°C° 0 mm 4 mps 749 mmHg 26%
    11:00 +34°C° 0 mm 5 mps 749 mmHg 24%
    12:00 +36°C° 0 mm 5 mps 748 mmHg 21%
    13:00 +36°C° 0 mm 5 mps 748 mmHg 21%
    14:00 +36°C° 0 mm 5 mps 748 mmHg 21%
    15:00 +36°C° 0 mm 5 mps 747 mmHg 21%
    16:00 +34°C° 0 mm 4 mps 747 mmHg 25%
    17:00 +32°C° 0 mm 4 mps 747 mmHg 29%
    18:00 +30°C° 0 mm 4 mps 747 mmHg 32%
    19:00 +29°C° 0 mm 4 mps 747 mmHg 36%
    20:00 +27°C° 0 mm 4 mps 748 mmHg 39%
    21:00 +26°C° 0 mm 4 mps 748 mmHg 42%
    22:00 +26°C° 0 mm 4 mps 748 mmHg 41%
    23:00 +26°C° 0 mm 4 mps 748 mmHg 40%

    Day after tomorrow, 24 September, Monday

    Time Temperature Precipitation Wind Pressure Humidity
    00:00 +26°C° 0 mm 4 mps 748 mmHg 39%
    01:00 +25°C° 0 mm 4 mps 748 mmHg 40%
    02:00 +25°C° 0 mm 4 mps 747 mmHg 40%
    03:00 +25°C° 0 mm 3 mps 747 mmHg 40%
    04:00 +25°C° 0 mm 3 mps 747 mmHg 40%
    05:00 +25°C° 0 mm 3 mps 747 mmHg 41%
    06:00 +24°C° 0 mm 3 mps 747 mmHg 41%
    07:00 +27°C° 0 mm 3 mps 748 mmHg 36%
    08:00 +29°C° 0 mm 3 mps 748 mmHg 32%
    09:00 +32°C° 0 mm 4 mps 748 mmHg 27%
    10:00 +34°C° 0 mm 4 mps 748 mmHg 26%
    11:00 +35°C° 0 mm 4 mps 748 mmHg 25%
    12:00 +36°C° 0 mm 4 mps 748 mmHg 23%
    13:00 +36°C° 0 mm 4 mps 748 mmHg 24%
    14:00 +36°C° 0 mm 4 mps 747 mmHg 25%
    15:00 +36°C° 0 mm 4 mps 747 mmHg 25%
    16:00 +34°C° 0 mm 4 mps 747 mmHg 29%
    17:00 +33°C° 0 mm 4 mps 746 mmHg 33%
    18:00 +30°C° 0 mm 4 mps 746 mmHg 38%
    19:00 +29°C° 0 mm 4 mps 747 mmHg 41%
    20:00 +28°C° 0 mm 4 mps 747 mmHg 44%
    21:00 +27°C° 0 mm 4 mps 748 mmHg 47%
    22:00 +26°C° 0 mm 4 mps 748 mmHg 47%
    23:00 +26°C° 0 mm 4 mps 747 mmHg 47%

    25 September, Tuesday

    Time Temperature Precipitation Wind Pressure Humidity
    00:00 +26°C° 0 mm 4 mps 747 mmHg 47%
    01:00 +25°C° 0 mm 4 mps 747 mmHg 48%
    02:00 +25°C° 0 mm 4 mps 747 mmHg 50%
    03:00 +25°C° 0 mm 4 mps 747 mmHg 51%
    04:00 +25°C° 0 mm 4 mps 747 mmHg 53%
    05:00 +25°C° 0 mm 4 mps 747 mmHg 55%
    06:00 +23°C° 0 mm 4 mps 747 mmHg 57%
    07:00 +26°C° 0 mm 5 mps 747 mmHg 53%
    08:00 +28°C° 0 mm 5 mps 748 mmHg 49%
    09:00 +30°C° 0 mm 5 mps 748 mmHg 44%
    10:00 +32°C° 0 mm 5 mps 748 mmHg 42%
    11:00 +33°C° 0 mm 5 mps 748 mmHg 40%
    12:00 +34°C° 0 mm 6 mps 748 mmHg 38%
    13:00 +33°C° 0 mm 6 mps 748 mmHg 40%
    14:00 +33°C° 0 mm 6 mps 747 mmHg 41%
    15:00 +33°C° 0 mm 6 mps 747 mmHg 43%
    16:00 +32°C° 0 mm 6 mps 747 mmHg 49%
    17:00 +29°C° 0 mm 5 mps 747 mmHg 54%
    18:00 +28°C° 0 mm 5 mps 747 mmHg 60%
    19:00 +27°C° 0 mm 6 mps 747 mmHg 65%
    20:00 +26°C° 0 mm 6 mps 748 mmHg 69%
    21:00 +24°C° 0 mm 6 mps 748 mmHg 73%
    22:00 +24°C° 0 mm 6 mps 748 mmHg 75%
    23:00 +24°C° 0 mm 7 mps 748 mmHg 77%

    26 September, Wednesday

    Time Temperature Precipitation Wind Pressure Humidity
    00:00 +24°C° 0 mm 7 mps 748 mmHg 79%
    01:00 +24°C° 0 mm 7 mps 748 mmHg 79%
    02:00 +24°C° 0 mm 7 mps 748 mmHg 80%
    03:00 +23°C° 0 mm 7 mps 748 mmHg 80%
    04:00 +23°C° 0 mm 7 mps 748 mmHg 80%
    05:00 +23°C° 0 mm 7 mps 748 mmHg 80%
    06:00 +23°C° 0 mm 7 mps 748 mmHg 81%
    07:00 +24°C° 0 mm 7 mps 749 mmHg 75%
    08:00 +26°C° 0 mm 8 mps 749 mmHg 69%
    09:00 +27°C° 0 mm 8 mps 749 mmHg 63%
    10:00 +28°C° 0 mm 8 mps 749 mmHg 60%
    11:00 +29°C° 0 mm 8 mps 749 mmHg 56%
    12:00 +31°C° 0 mm 8 mps 749 mmHg 52%
    13:00 +31°C° 0 mm 8 mps 749 mmHg 52%
    14:00 +31°C° 0 mm 8 mps 748 mmHg 51%
    15:00 +31°C° 0 mm 8 mps 748 mmHg 50%
    16:00 +29°C° 0 mm 7 mps 748 mmHg 55%
    17:00 +28°C° 0 mm 7 mps 748 mmHg 59%
    18:00 +27°C° 0 mm 7 mps 748 mmHg 64%
    19:00 +26°C° 0 mm 7 mps 749 mmHg 68%
    20:00 +24°C° 0 mm 7 mps 749 mmHg 73%
    21:00 +24°C° 0 mm 7 mps 749 mmHg 77%
    22:00 +24°C° 0 mm 7 mps 749 mmHg 78%
    23:00 +24°C° 0 mm 7 mps 749 mmHg 78%

    27 September, Thursday

    Time Temperature Precipitation Wind Pressure Humidity
    00:00 +23°C° 0 mm 7 mps 749 mmHg 79%
    01:00 +23°C° 0 mm 7 mps 749 mmHg 80%
    02:00 +23°C° 0 mm 7 mps 749 mmHg 80%
    03:00 +23°C° 0 mm 7 mps 749 mmHg 81%
    04:00 +23°C° 0 mm 7 mps 749 mmHg 81%
    05:00 +23°C° 0 mm 7 mps 749 mmHg 82%
    06:00 +22°C° 0 mm 6 mps 749 mmHg 83%
    07:00 +24°C° 0 mm 7 mps 749 mmHg 75%
    08:00 +26°C° 0 mm 7 mps 749 mmHg 67%
    09:00 +28°C° 0 mm 7 mps 750 mmHg 59%
    10:00 +29°C° 0 mm 7 mps 750 mmHg 56%
    11:00 +29°C° 0 mm 7 mps 750 mmHg 53%
    12:00 +30°C° 0 mm 7 mps 749 mmHg 49%
    13:00 +32°C° 0 mm 7 mps 749 mmHg 48%
    14:00 +32°C° 0 mm 7 mps 748 mmHg 48%
    15:00 +32°C° 0 mm 6 mps 748 mmHg 47%
    16:00 +29°C° 0 mm 6 mps 748 mmHg 52%
    17:00 +28°C° 0 mm 6 mps 748 mmHg 56%
    18:00 +27°C° 0 mm 5 mps 748 mmHg 61%
    19:00 +26°C° 0 mm 5 mps 748 mmHg 66%
    20:00 +25°C° 0 mm 5 mps 748 mmHg 71%
    21:00 +25°C° 0 mm 5 mps 748 mmHg 76%
    22:00 +23°C° 0 mm 5 mps 748 mmHg 78%
    23:00 +23°C° 0 mm 5 mps 748 mmHg 80%
    Show more